This demonstration page uses our WeatherBlox Daily Observations layout. Learn more.

Left ArrowRight Arrow

Hourly Observations for December 17, 2019

Temp ( °F °C ) Dew Point ( °F °C ) Humidity (%) Winds ( mph kmh ) Pressure ( in mb ) Visibility ( mi km ) Precip ( " mm )
12:56 am 00:56 Cloudy 22 -5.6 16 -8.9 78 78 W 8 13 30.32 1027 10 16 0.00 0.00
1:56 am 01:56 Clear 17 -8.3 13 -10.6 84 84 WNW 12 19 30.34 1027 10 16 0.00 0.00
2:56 am 02:56 Clear 15 -9.4 11 -11.7 84 84 WNW 12 19 30.36 1028 10 16 0.00 0.00
3:56 am 03:56 Clear 14 -10 10 -12.2 84 84 WNW 8 13 30.35 1028 10 16 0.00 0.00
4:56 am 04:56 Clear 14 -10 10 -12.2 84 84 WNW 8 13 30.35 1028 10 16 0.00 0.00
5:56 am 05:56 Clear 16 -8.9 11 -11.7 80 80 W 9 15 30.35 1028 10 16 0.00 0.00
6:56 am 06:56 Clear 16 -8.9 10 -12.2 77 77 W 8 13 30.37 1028 10 16 0.00 0.00
7:56 am 07:56 Sunny 17 -8.3 10 -12.2 74 74 WNW 9 15 30.37 1029 10 16 0.00 0.00
8:56 am 08:56 Sunny 19 -7.2 10 -12.2 68 68 W 9 15 30.37 1029 10 16 0.00 0.00
9:56 am 09:56 Sunny 25 -3.9 12 -11.1 58 58 W 9 15 30.37 1028 10 16 0.00 0.00
10:56 am 10:56 Sunny 30 -1.1 15 -9.4 54 54 W 10 17 30.36 1028 10 16 0.00 0.00
11:56 am 11:56 Sunny 32 0 17 -8.3 54 54 W 8 13 30.32 1027 10 16 0.00 0.00
12:56 pm 12:56 Sunny 32 0 17 -8.3 54 54 W 13 20 30.30 1026 10 16 0.00 0.00
1:56 pm 13:56 Sunny 34 1.1 17 -8.3 50 50 W 12 19 30.28 1025 10 16 0.00 0.00
2:56 pm 14:56 Sunny 34 1.1 17 -8.3 50 50 W 14 22 30.29 1026 10 16 0.00 0.00
3:56 pm 15:56 Sunny 34 1.1 20 -6.7 56 56 WNW 12 19 30.30 1026 10 16 0.00 0.00
4:56 pm 16:56 Sunny 32 0 22 -5.6 66 66 W 9 15 30.30 1026 10 16 0.00 0.00
5:56 pm 17:56 Clear 27 -2.8 20 -6.7 75 75 W 8 13 30.31 1027 10 16 0.00 0.00
6:56 pm 18:56 Clear 27 -2.8 20 -6.7 75 75 WNW 9 15 30.33 1027 10 16 0.00 0.00
7:56 pm 19:56 Clear 25 -3.9 19 -7.2 78 78 WNW 10 17 30.34 1027 10 16 0.00 0.00
8:56 pm 20:56 Clear 24 -4.4 18 -7.8 77 77 NW 8 13 30.34 1027 10 16 0.00 0.00
9:56 pm 21:56 Clear 21 -6.1 16 -8.9 81 81 WNW 9 15 30.33 1027 10 16 0.00 0.00
10:56 pm 22:56 Clear 25 -3.9 19 -7.2 78 78 W 7 11 30.31 1026 10 16 0.00 0.00
11:56 pm 23:56 Clear 19 -7.2 15 -9.4 84 84 SW 6 9 30.31 1027 10 16 0.00 0.00

Powered by AerisWeather